JQ1YUX-13 Tokyo Ota-ku JP current weather conditions

sailwx.info

Air temperature 23.9° C
Dewpoint 22.3° C

Last reported at 2017-Jul-26 17:47 UTC.
Time now 2017-Jul-26 18:40 UTC

Location: N 35°35' E 139°40'.
View on Google Maps.

See reports from other nearby stations

  
Tides and Currents Weather Stations Pressure Air Temp Water Temp Dewpoint Dewpoint Depression Visibility Wind Speed Wind Dir Waves Ship Positions
date/time (UTC)wind fromknots sea level pressurealtimeterstation pressurevisibilityair tempwater tempwave heightnotes
2017-Jul-26 17:47 23.9
2017-Jul-26 17:17 009 23.9
2017-Jul-26 16:47 005 23.9
2017-Jul-26 16:17 016 23.9
2017-Jul-26 15:47 018 1 gusting 6 23.9
2017-Jul-26 15:17 23.9
2017-Jul-26 14:47 010 23.9
2017-Jul-26 14:17 030 1 gusting 6 23.9
2017-Jul-26 13:47 005 24.4
2017-Jul-26 12:47 021 24.4
2017-Jul-26 12:17 039 0 gusting 6 24.4
2017-Jul-26 11:47 028 0 gusting 5 24.4
2017-Jul-26 11:17 042 24.4
2017-Jul-26 10:47 032 1 gusting 4 24.4
2017-Jul-26 10:39 040 0 25.0
2017-Jul-26 10:17 029 25.0
2017-Jul-26 10:10 029 25.0
2017-Jul-26 10:09 028 25.0
2017-Jul-26 09:40 028 25.0
2017-Jul-26 09:39 029 25.0
2017-Jul-26 09:10 031 25.6
2017-Jul-26 09:09 031 25.6
2017-Jul-26 08:40 028 25.6
2017-Jul-26 08:39 028 25.6
2017-Jul-26 08:10 030 25.6
2017-Jul-26 08:09 033 25.0
2017-Jul-26 07:40 317 24.4
2017-Jul-26 07:39 317 24.4
2017-Jul-26 07:10 317 24.4
2017-Jul-26 07:09 317 24.4
2017-Jul-26 06:40 317 24.4
2017-Jul-26 06:39 317 24.4
2017-Jul-26 06:10 015 24.4
2017-Jul-26 06:09 015 24.4
2017-Jul-26 05:40 032 24.4
2017-Jul-26 05:39 032 24.4
2017-Jul-26 05:10 009 24.4
2017-Jul-26 05:09 005 24.4
2017-Jul-26 04:40 011 2 gusting 6 24.4
2017-Jul-26 04:39 033 24.4
2017-Jul-26 04:10 034 24.4
2017-Jul-26 04:09 034 24.4
2017-Jul-26 03:40 035 23.9
2017-Jul-26 03:39 034 23.9
2017-Jul-26 03:10 051 23.9
2017-Jul-26 03:09 049 23.9
2017-Jul-26 02:40 039 23.9
2017-Jul-26 02:39 039 23.9
2017-Jul-26 02:10 024 23.9
2017-Jul-26 02:09 025 23.9
2017-Jul-26 01:40 036 3 gusting 4 23.9
2017-Jul-26 01:39 037 3 gusting 6 23.9
2017-Jul-26 01:10 030 24.4
2017-Jul-26 01:09 029 24.4
2017-Jul-26 00:40 015 24.4
2017-Jul-26 00:39 015 24.4
2017-Jul-26 00:10 029 0 gusting 5 25.0
2017-Jul-26 00:09 022 25.0
2017-Jul-25 23:40 042 25.0
2017-Jul-25 23:39 038 25.0
2017-Jul-25 23:10 041 25.0
2017-Jul-25 23:09 040 25.0
2017-Jul-25 22:40 039 25.6
2017-Jul-25 22:39 038 25.6
2017-Jul-25 22:10 022 25.6
2017-Jul-25 22:09 022 25.6
2017-Jul-25 21:40 033 25.6
2017-Jul-25 21:39 338 25.6
2017-Jul-25 21:10 281 25.6
2017-Jul-25 21:09 281 25.6
2017-Jul-25 20:40 299 0 gusting 3 25.6
2017-Jul-25 20:39 292 25.6
2017-Jul-25 20:10 288 26.1
2017-Jul-25 20:09 288 26.1
2017-Jul-25 19:40 276 26.7
2017-Jul-25 19:39 273 26.7
2017-Jul-25 19:10 200 27.2
2017-Jul-25 19:09 199 27.2
2017-Jul-25 18:40 206 27.2
2017-Jul-25 18:39 207 27.2
2017-Jul-25 18:10 187 27.2
2017-Jul-25 18:09 187 0 gusting 1 27.2
2017-Jul-25 17:40 201 27.2
2017-Jul-25 17:39 201 27.2
2017-Jul-25 17:10 202 27.8
2017-Jul-25 17:09 203 27.8
2017-Jul-25 16:40 223 27.8
2017-Jul-25 16:39 222 27.8
2017-Jul-25 16:10 178 1 gusting 5 27.8
2017-Jul-25 16:09 200 0 gusting 5 27.8
2017-Jul-25 15:40 182 27.8
2017-Jul-25 15:39 182 27.8
2017-Jul-25 15:10 180 0 gusting 5 27.8
2017-Jul-25 15:09 175 1 gusting 3 27.8
2017-Jul-25 14:40 213 0 gusting 4 27.8
2017-Jul-25 14:39 213 27.8
2017-Jul-25 14:10 178 0 gusting 3 27.8
2017-Jul-25 14:09 178 0 gusting 3 27.8
2017-Jul-25 13:42 192 2 gusting 5 27.8
2017-Jul-25 13:39 205 0 gusting 4 27.8
2017-Jul-25 13:09 192 2 gusting 5 28.3
2017-Jul-25 12:42 175 28.3
2017-Jul-25 12:39 175 28.3
2017-Jul-25 12:12 172 28.3
2017-Jul-25 12:09 168 28.3
2017-Jul-25 11:42 186 0 gusting 5 28.9
2017-Jul-25 11:39 175 28.9
2017-Jul-25 11:12 199 1 gusting 6 28.9
2017-Jul-25 11:09 177 0 gusting 5 28.9
2017-Jul-25 10:42 217 28.9
2017-Jul-25 10:39 187 28.9
2017-Jul-25 10:12 203 2 gusting 9 28.9
2017-Jul-25 10:09 223 2 gusting 6 28.9
2017-Jul-25 09:42 159 3 gusting 8 29.4
2017-Jul-25 09:39 203 5 gusting 9 29.4
2017-Jul-25 09:12 226 0 gusting 3 30.0
2017-Jul-25 09:09 184 3 gusting 6 30.0
2017-Jul-25 08:42 183 30.6
2017-Jul-25 08:39 194 30.6
2017-Jul-25 08:12 209 1 gusting 1 30.6
2017-Jul-25 08:09 192 1 gusting 3 30.6
2017-Jul-25 07:42 199 1 gusting 6 31.7
2017-Jul-25 07:39 207 3 gusting 8 31.7
2017-Jul-25 07:12 176 1 gusting 6 32.2
2017-Jul-25 07:09 180 2 gusting 4 32.2
2017-Jul-25 06:42 217 2 gusting 4 31.7
2017-Jul-25 06:39 204 0 gusting 4 31.7
2017-Jul-25 06:12 140 1 gusting 6 31.7
2017-Jul-25 06:09 207 31.1
2017-Jul-25 05:42 175 0 gusting 3 32.2
2017-Jul-25 05:39 214 2 gusting 10 32.2
2017-Jul-25 05:12 192 0 gusting 10 32.2
2017-Jul-25 05:09 211 1 gusting 6 32.2
2017-Jul-25 04:42 200 1 gusting 6 31.7
2017-Jul-25 04:39 185 4 gusting 7 31.7
2017-Jul-25 04:12 184 31.7
2017-Jul-25 04:09 194 2 gusting 4 31.7
2017-Jul-25 03:42 182 0 gusting 7 31.7
2017-Jul-25 03:39 217 1 gusting 6 31.7
2017-Jul-25 03:12 218 1 gusting 6 31.7
2017-Jul-25 03:09 202 0 gusting 6 31.7
2017-Jul-25 02:42 209 0 gusting 4 32.2
2017-Jul-25 02:39 207 1 gusting 4 32.2
2017-Jul-25 02:12 158 1 gusting 4 32.2
2017-Jul-25 02:09 154 2 gusting 4 32.2
2017-Jul-25 01:42 206 0 gusting 1 31.7
2017-Jul-25 01:39 186 0 gusting 7 31.7
2017-Jul-25 01:12 222 3 gusting 4 31.1
2017-Jul-25 01:09 252 0 gusting 5 31.1
2017-Jul-25 00:42 198 2 gusting 6 31.1
2017-Jul-25 00:39 220 1 gusting 6 30.6
2017-Jul-25 00:12 192 1 gusting 6 30.6
2017-Jul-25 00:09 260 4 gusting 6 30.6
2017-Jul-24 23:42 206 1 gusting 8 30.0
2017-Jul-24 23:39 196 2 gusting 7 30.0
2017-Jul-24 23:12 218 1 gusting 9 29.4
2017-Jul-24 23:09 187 3 gusting 13 29.4
2017-Jul-24 22:42 223 1 gusting 4 29.4
2017-Jul-24 22:39 222 1 gusting 8 29.4
2017-Jul-24 22:12 205 28.3
2017-Jul-24 22:09 205 2 gusting 5 28.3
2017-Jul-24 21:42 221 28.3
2017-Jul-24 21:39 196 28.3
2017-Jul-24 21:12 213 0 gusting 4 27.8
2017-Jul-24 21:09 200 27.8
2017-Jul-24 20:42 224 27.2
2017-Jul-24 20:39 214 27.2
2017-Jul-24 20:12 205 27.2
2017-Jul-24 20:09 208 1 gusting 3 27.2
2017-Jul-24 19:42 199 1 gusting 6 27.2
2017-Jul-24 19:39 198 27.2
2017-Jul-24 19:12 196 0 gusting 6 27.2
2017-Jul-24 19:09 175 0 27.2
2017-Jul-24 18:42 200 0 gusting 1 27.2
2017-Jul-24 18:39 202 27.2
2017-Jul-24 18:12 191 27.2
2017-Jul-24 18:09 198 0 gusting 3 27.2